Voltar ao catálogo

SKYBEE-A02

AtivoCiênciaSSO
NORAD 64544·PAYLOAD·🇩🇪 Germany

Lançado Jun 23, 2025 de Vandenberg Space Force Base

Loading…

Próximas Passagens (próximas 24 horas)

TLE

AtualizadoSource: Space-Track

Época: Sep 14, 2026, 13:58 UTC

1 64544U 25135S   26257.58250409  .00002139  00000-0  10108-3 0  9992
2 64544  97.4808  11.6444 0001964 150.0123 210.1225 15.20494490 68413

Acompanhe SKYBEE-A02 em tempo real com AllMySat

Download on the App Store